JST532 YMML-YSSY

Flight info

Callsign JST532
Flight time 1h 6m
Altitude 37000
Route ML H129 DOSEL Y59 RIVET
Aircraft A320/M-SDE3FGHIRWY/LB1

Departure

Time 2026-04-30 10:52
Airport Melbourne Airport (YMML)

Arrival

Time 2026-04-30 11:58
Airport Sydney Kingsford Smith International Airport (YSSY)
Time Latitude Longitude Altitude Speed Heading
2026-04-30 10:20 -37.67517 144.84836 380 ft 0 kts 171°
2026-04-30 10:43 -37.67511 144.84835 380 ft 4 kts 172°
2026-04-30 10:43 -37.67494 144.84831 380 ft 4 kts 172°
2026-04-30 10:43 -37.67467 144.84827 381 ft 4 kts 172°
2026-04-30 10:44 -37.67440 144.84822 382 ft 4 kts 173°
2026-04-30 10:44 -37.67420 144.84820 382 ft 0 kts 174°
2026-04-30 10:44 -37.67428 144.84803 382 ft 4 kts 252°
2026-04-30 10:44 -37.67431 144.84770 382 ft 4 kts 264°
2026-04-30 10:45 -37.67435 144.84738 382 ft 4 kts 261°
2026-04-30 10:45 -37.67439 144.84705 381 ft 4 kts 261°
2026-04-30 10:45 -37.67443 144.84671 381 ft 4 kts 261°
2026-04-30 10:45 -37.67447 144.84639 381 ft 2 kts 261°
2026-04-30 10:46 -37.67447 144.84637 381 ft 0 kts 261°
2026-04-30 10:48 -37.67451 144.84598 380 ft 10 kts 261°
2026-04-30 10:49 -37.67463 144.84499 379 ft 17 kts 262°
2026-04-30 10:49 -37.67494 144.84351 376 ft 17 kts 226°
2026-04-30 10:49 -37.67627 144.84353 372 ft 23 kts 170°
2026-04-30 10:49 -37.67784 144.84361 365 ft 21 kts 193°
2026-04-30 10:50 -37.67861 144.84195 360 ft 23 kts 264°
2026-04-30 10:50 -37.67884 144.84011 364 ft 15 kts 262°
2026-04-30 10:50 -37.67839 144.83960 360 ft 10 kts 354°
2026-04-30 10:50 -37.67826 144.83958 361 ft 0 kts 353°
2026-04-30 10:51 -37.67825 144.83958 361 ft 1 kts 353°
2026-04-30 10:51 -37.67644 144.83928 365 ft 60 kts 351°
2026-04-30 10:52 -37.67025 144.83810 385 ft 116 kts 351°
2026-04-30 10:52 -37.66084 144.83636 469 ft 152 kts 352°
2026-04-30 10:52 -37.65032 144.83455 1060 ft 152 kts 352°
2026-04-30 10:52 -37.63992 144.83256 1715 ft 150 kts 353°
2026-04-30 10:53 -37.62971 144.83054 2312 ft 148 kts 352°
2026-04-30 10:53 -37.61908 144.82845 2623 ft 164 kts 352°
2026-04-30 10:53 -37.60724 144.82614 2800 ft 185 kts 352°
2026-04-30 10:53 -37.59373 144.82456 3103 ft 204 kts
2026-04-30 10:54 -37.57953 144.82979 3545 ft 221 kts 23°
2026-04-30 10:54 -37.56558 144.83838 4279 ft 225 kts 22°
2026-04-30 10:54 -37.55142 144.84704 5083 ft 227 kts 21°
2026-04-30 10:54 -37.53707 144.85578 5801 ft 231 kts 22°
2026-04-30 10:55 -37.52239 144.86469 6451 ft 242 kts 21°
2026-04-30 10:55 -37.50684 144.87406 6995 ft 257 kts 21°
2026-04-30 10:55 -37.49037 144.88399 7582 ft 272 kts 21°
2026-04-30 10:55 -37.47259 144.89468 7886 ft 295 kts 22°
2026-04-30 10:56 -37.45334 144.90629 8124 ft 319 kts 22°
2026-04-30 10:56 -37.43448 144.92261 8478 ft 341 kts 41°
2026-04-30 10:56 -37.41959 144.94653 9124 ft 352 kts 51°
2026-04-30 10:56 -37.40537 144.97187 9812 ft 357 kts 51°
2026-04-30 10:57 -37.39093 144.99751 10450 ft 362 kts 51°
2026-04-30 10:57 -37.37629 145.02343 11077 ft 365 kts 51°
2026-04-30 10:57 -37.36150 145.04959 11717 ft 369 kts 51°
2026-04-30 10:57 -37.34675 145.07567 12370 ft 373 kts 51°
2026-04-30 10:58 -37.33170 145.10236 13029 ft 376 kts 51°
2026-04-30 10:58 -37.31651 145.12926 13672 ft 379 kts 51°
2026-04-30 10:58 -37.30114 145.15642 14273 ft 383 kts 51°
2026-04-30 10:58 -37.28565 145.18373 14837 ft 386 kts 51°
2026-04-30 10:59 -37.26999 145.21125 15383 ft 389 kts 51°
2026-04-30 10:59 -37.25418 145.23899 15922 ft 392 kts 51°
2026-04-30 10:59 -37.23827 145.26692 16468 ft 395 kts 51°
2026-04-30 10:59 -37.22228 145.29506 17037 ft 397 kts 51°
2026-04-30 11:00 -37.20617 145.32332 17590 ft 400 kts 51°
2026-04-30 11:00 -37.19010 145.35137 18141 ft 403 kts 50°
2026-04-30 11:00 -37.17369 145.38000 18698 ft 406 kts 50°
2026-04-30 11:00 -37.15718 145.40883 19171 ft 409 kts 51°
2026-04-30 11:01 -37.14053 145.43796 19622 ft 412 kts 51°
2026-04-30 11:01 -37.12376 145.46728 20064 ft 416 kts 51°
2026-04-30 11:01 -37.10681 145.49688 20523 ft 420 kts 51°
2026-04-30 11:01 -37.08974 145.52671 20974 ft 423 kts 51°
2026-04-30 11:02 -37.07251 145.55673 21423 ft 425 kts 51°
2026-04-30 11:02 -37.05518 145.58687 21852 ft 429 kts 51°
2026-04-30 11:02 -37.03770 145.61725 22259 ft 431 kts 51°
2026-04-30 11:02 -37.02032 145.64740 22660 ft 435 kts 51°
2026-04-30 11:03 -37.00256 145.67816 23044 ft 438 kts 51°
2026-04-30 11:03 -36.98465 145.70910 23434 ft 441 kts 51°
2026-04-30 11:03 -36.96661 145.74027 23814 ft 444 kts 51°
2026-04-30 11:04 -36.93026 145.80320 24466 ft 449 kts 51°
2026-04-30 11:04 -36.91191 145.83494 24781 ft 452 kts 50°
2026-04-30 11:04 -36.89342 145.86685 25110 ft 454 kts 50°
2026-04-30 11:04 -36.87482 145.89887 25460 ft 456 kts 50°
2026-04-30 11:05 -36.85616 145.93100 25804 ft 458 kts 50°
2026-04-30 11:05 -36.83767 145.96281 26141 ft 460 kts 50°
2026-04-30 11:05 -36.81882 145.99517 26492 ft 462 kts 50°
2026-04-30 11:05 -36.79985 146.02770 26822 ft 464 kts 50°
2026-04-30 11:06 -36.78080 146.06028 27143 ft 466 kts 50°
2026-04-30 11:06 -36.76164 146.09295 27480 ft 468 kts 50°
2026-04-30 11:06 -36.74240 146.12578 27812 ft 470 kts 50°
2026-04-30 11:06 -36.72310 146.15876 28138 ft 472 kts 50°
2026-04-30 11:07 -36.70372 146.19188 28454 ft 474 kts 50°
2026-04-30 11:07 -36.68425 146.22515 28796 ft 476 kts 50°
2026-04-30 11:07 -36.66478 146.25840 29250 ft 475 kts 50°
2026-04-30 11:07 -36.64561 146.29114 29713 ft 474 kts 50°
2026-04-30 11:08 -36.62599 146.32466 30193 ft 472 kts 50°
2026-04-30 11:08 -36.60691 146.35719 30674 ft 470 kts 50°
2026-04-30 11:08 -36.58765 146.38991 31093 ft 468 kts 50°
2026-04-30 11:08 -36.56840 146.42252 31501 ft 467 kts 50°
2026-04-30 11:09 -36.54919 146.45502 31915 ft 466 kts 50°
2026-04-30 11:09 -36.53000 146.48741 32322 ft 465 kts 50°
2026-04-30 11:09 -36.51099 146.51953 33031 ft 455 kts 50°
2026-04-30 11:09 -36.49239 146.55099 33735 ft 449 kts 50°
2026-04-30 11:10 -36.47396 146.58209 34264 ft 446 kts 50°
2026-04-30 11:10 -36.45561 146.61301 34665 ft 444 kts 50°
2026-04-30 11:10 -36.43754 146.64346 35016 ft 444 kts 50°
2026-04-30 11:10 -36.41926 146.67427 35328 ft 443 kts 50°
2026-04-30 11:11 -36.40095 146.70510 35626 ft 443 kts 50°
2026-04-30 11:11 -36.38264 146.73589 35937 ft 443 kts 50°
2026-04-30 11:11 -36.36432 146.76665 36242 ft 443 kts 50°
2026-04-30 11:11 -36.34600 146.79739 36525 ft 443 kts 50°
2026-04-30 11:12 -36.32765 146.82813 36788 ft 443 kts 50°
2026-04-30 11:12 -36.30928 146.85882 37057 ft 444 kts 50°
2026-04-30 11:12 -36.29086 146.88960 37283 ft 444 kts 50°
2026-04-30 11:13 -36.25414 146.95090 37405 ft 447 kts 50°
2026-04-30 11:13 -36.21709 147.01283 37395 ft 447 kts 50°
2026-04-30 11:14 -36.17996 147.07463 37405 ft 447 kts 50°
2026-04-30 11:14 -36.14278 147.13639 37405 ft 448 kts 50°
2026-04-30 11:15 -36.10556 147.19817 37408 ft 448 kts 50°
2026-04-30 11:15 -36.06843 147.25947 37406 ft 448 kts 50°
2026-04-30 11:16 -36.03107 147.32118 37419 ft 449 kts 50°
2026-04-30 11:16 -35.99368 147.38295 37429 ft 449 kts 51°
2026-04-30 11:17 -35.95624 147.44460 37435 ft 449 kts 50°
2026-04-30 11:17 -35.91905 147.50574 37444 ft 449 kts 50°
2026-04-30 11:18 -35.88158 147.56727 37437 ft 448 kts 50°
2026-04-30 11:18 -35.82528 147.65943 37454 ft 449 kts 50°
2026-04-30 11:19 -35.78767 147.72083 37453 ft 449 kts 51°
2026-04-30 11:19 -35.74999 147.78225 37448 ft 450 kts 50°
2026-04-30 11:20 -35.71251 147.84325 37460 ft 450 kts 50°
2026-04-30 11:20 -35.67470 147.90469 37466 ft 450 kts 50°
2026-04-30 11:21 -35.63687 147.96613 37470 ft 451 kts 51°
2026-04-30 11:21 -35.59896 148.02754 37462 ft 451 kts 51°
2026-04-30 11:22 -35.56094 148.08897 37476 ft 452 kts 51°
2026-04-30 11:22 -35.52318 148.14992 37483 ft 452 kts 51°
2026-04-30 11:23 -35.48505 148.21126 37468 ft 452 kts 51°
2026-04-30 11:24 -35.42778 148.30329 37473 ft 453 kts 51°
2026-04-30 11:24 -35.38952 148.36464 37469 ft 453 kts 51°
2026-04-30 11:25 -35.33200 148.45649 37470 ft 453 kts 51°
2026-04-30 11:26 -35.25544 148.57874 37473 ft 454 kts 51°
2026-04-30 11:26 -35.21693 148.64013 37472 ft 455 kts 51°
2026-04-30 11:27 -35.17836 148.70146 37488 ft 455 kts 51°
2026-04-30 11:27 -35.13966 148.76270 37477 ft 455 kts 51°
2026-04-30 11:28 -35.08156 148.85446 37480 ft 455 kts 51°
2026-04-30 11:29 -35.04305 148.91515 37475 ft 455 kts 51°
2026-04-30 11:29 -34.98491 149.00687 37476 ft 456 kts 51°
2026-04-30 11:30 -34.94606 149.06799 37245 ft 457 kts 51°
2026-04-30 11:30 -34.92632 149.09888 36160 ft 468 kts 51°
2026-04-30 11:30 -34.90636 149.13009 35739 ft 463 kts 52°
2026-04-30 11:31 -34.88690 149.16051 35278 ft 460 kts 52°
2026-04-30 11:31 -34.86729 149.19121 34770 ft 458 kts 52°
2026-04-30 11:31 -34.84782 149.22173 34239 ft 456 kts 52°
2026-04-30 11:31 -34.82845 149.25210 33722 ft 452 kts 52°
2026-04-30 11:32 -34.80922 149.28220 33232 ft 448 kts 52°
2026-04-30 11:32 -34.79013 149.31202 32731 ft 445 kts 52°
2026-04-30 11:32 -34.77116 149.34153 32239 ft 442 kts 52°
2026-04-30 11:33 -34.73511 149.40113 31316 ft 434 kts 60°
2026-04-30 11:33 -34.72100 149.43332 30867 ft 430 kts 62°
2026-04-30 11:33 -34.70732 149.46490 30403 ft 426 kts 62°
2026-04-30 11:33 -34.69357 149.49657 29945 ft 421 kts 62°
2026-04-30 11:34 -34.67998 149.52780 29524 ft 416 kts 62°
2026-04-30 11:34 -34.66653 149.55864 29112 ft 410 kts 62°
2026-04-30 11:34 -34.65323 149.58908 28707 ft 405 kts 62°
2026-04-30 11:34 -34.64008 149.61911 28309 ft 401 kts 62°
2026-04-30 11:35 -34.62705 149.64888 27915 ft 397 kts 62°
2026-04-30 11:35 -34.61413 149.67837 27520 ft 394 kts 62°
2026-04-30 11:35 -34.60131 149.70756 27129 ft 391 kts 62°
2026-04-30 11:35 -34.58873 149.73617 26743 ft 388 kts 62°
2026-04-30 11:36 -34.57607 149.76491 26352 ft 385 kts 61°
2026-04-30 11:36 -34.56350 149.79347 25947 ft 382 kts 62°
2026-04-30 11:36 -34.55103 149.82182 25545 ft 380 kts 62°
2026-04-30 11:36 -34.53864 149.85002 25118 ft 378 kts 61°
2026-04-30 11:37 -34.52628 149.87807 24722 ft 376 kts 61°
2026-04-30 11:37 -34.51398 149.90596 24306 ft 375 kts 61°
2026-04-30 11:37 -34.50170 149.93377 23851 ft 373 kts 61°
2026-04-30 11:37 -34.48966 149.96105 23415 ft 370 kts 62°
2026-04-30 11:38 -34.47757 149.98841 23001 ft 366 kts 61°
2026-04-30 11:38 -34.46558 150.01549 22579 ft 363 kts 61°
2026-04-30 11:38 -34.45367 150.04233 22161 ft 360 kts 61°
2026-04-30 11:38 -34.44188 150.06890 21757 ft 357 kts 61°
2026-04-30 11:39 -34.43017 150.09530 21338 ft 355 kts 61°
2026-04-30 11:39 -34.41853 150.12155 20925 ft 352 kts 61°
2026-04-30 11:39 -34.40696 150.14760 20516 ft 350 kts 61°
2026-04-30 11:39 -34.39545 150.17349 20104 ft 348 kts 61°
2026-04-30 11:40 -34.38399 150.19921 19698 ft 346 kts 61°
2026-04-30 11:40 -34.37273 150.22444 19300 ft 345 kts 60°
2026-04-30 11:40 -34.36136 150.24991 18900 ft 343 kts 60°
2026-04-30 11:40 -34.35002 150.27529 18456 ft 342 kts 61°
2026-04-30 11:41 -34.33876 150.30051 18047 ft 339 kts 61°
2026-04-30 11:41 -34.32760 150.32551 17646 ft 337 kts 61°
2026-04-30 11:41 -34.31652 150.35035 17250 ft 334 kts 61°
2026-04-30 11:41 -34.30550 150.37503 16855 ft 332 kts 61°
2026-04-30 11:42 -34.29456 150.39953 16464 ft 330 kts 61°
2026-04-30 11:42 -34.28364 150.42392 16060 ft 329 kts 60°
2026-04-30 11:42 -34.27272 150.44817 15685 ft 328 kts 60°
2026-04-30 11:42 -34.26203 150.47201 15297 ft 326 kts 61°
2026-04-30 11:43 -34.25124 150.49608 14919 ft 325 kts 61°
2026-04-30 11:43 -34.24050 150.52010 14536 ft 324 kts 61°
2026-04-30 11:43 -34.22980 150.54404 14133 ft 324 kts 61°
2026-04-30 11:43 -34.21916 150.56791 13727 ft 322 kts 61°
2026-04-30 11:44 -34.20856 150.59161 13343 ft 319 kts 61°
2026-04-30 11:44 -34.19800 150.61513 12961 ft 317 kts 61°
2026-04-30 11:44 -34.18751 150.63848 12588 ft 315 kts 61°
2026-04-30 11:44 -34.17707 150.66170 12213 ft 314 kts 61°
2026-04-30 11:45 -34.16667 150.68480 11828 ft 312 kts 61°
2026-04-30 11:45 -34.15632 150.70777 11458 ft 311 kts 61°
2026-04-30 11:45 -34.14604 150.73065 11083 ft 310 kts 61°
2026-04-30 11:45 -34.13606 150.75290 10912 ft 301 kts 61°
2026-04-30 11:46 -34.12625 150.77478 10744 ft 293 kts 61°
2026-04-30 11:46 -34.11659 150.79619 10466 ft 290 kts 60°
2026-04-30 11:46 -34.10698 150.81750 10142 ft 287 kts 60°
2026-04-30 11:46 -34.09745 150.83861 9805 ft 286 kts 61°
2026-04-30 11:47 -34.08799 150.85961 9457 ft 284 kts 61°
2026-04-30 11:47 -34.07859 150.88050 9108 ft 282 kts 61°
2026-04-30 11:47 -34.06922 150.90124 8777 ft 281 kts 61°
2026-04-30 11:47 -34.06001 150.92158 8460 ft 279 kts 61°
2026-04-30 11:48 -34.05072 150.94207 8138 ft 278 kts 61°
2026-04-30 11:48 -34.04152 150.96250 7808 ft 276 kts 61°
2026-04-30 11:48 -34.03453 150.98389 7485 ft 275 kts 79°
2026-04-30 11:48 -34.03462 151.00672 7164 ft 274 kts 101°
2026-04-30 11:49 -34.04192 151.02778 6865 ft 274 kts 123°
2026-04-30 11:49 -34.05455 151.04499 6511 ft 274 kts 132°
2026-04-30 11:49 -34.06781 151.06154 6135 ft 275 kts 134°
2026-04-30 11:49 -34.08324 151.07505 5809 ft 276 kts 150°
2026-04-30 11:50 -34.10104 151.08285 5479 ft 278 kts 166°
2026-04-30 11:50 -34.12002 151.08775 5102 ft 280 kts 166°
2026-04-30 11:50 -34.13906 151.09265 4775 ft 279 kts 166°
2026-04-30 11:50 -34.15799 151.09754 4444 ft 278 kts 166°
2026-04-30 11:51 -34.17687 151.10243 4139 ft 276 kts 166°
2026-04-30 11:51 -34.19491 151.10926 3928 ft 267 kts 147°
2026-04-30 11:51 -34.20782 151.12402 3804 ft 250 kts 116°
2026-04-30 11:51 -34.21245 151.14319 3680 ft 232 kts 85°
2026-04-30 11:52 -34.20810 151.16101 3551 ft 217 kts 54°
2026-04-30 11:52 -34.19848 151.17445 3423 ft 208 kts 44°
2026-04-30 11:52 -34.18837 151.18652 3300 ft 206 kts 43°
2026-04-30 11:52 -34.17762 151.19783 3179 ft 205 kts 31°
2026-04-30 11:53 -34.16485 151.20545 3086 ft 205 kts 23°
2026-04-30 11:53 -34.15200 151.21200 3023 ft 195 kts 23°
2026-04-30 11:53 -34.13986 151.21801 3043 ft 180 kts 23°
2026-04-30 11:53 -34.12852 151.22190 3027 ft 162 kts
2026-04-30 11:54 -34.11757 151.22057 2986 ft 160 kts 351°
2026-04-30 11:54 -34.10663 151.21771 2834 ft 160 kts 350°
2026-04-30 11:54 -34.09572 151.21485 2640 ft 161 kts 350°
2026-04-30 11:54 -34.08477 151.21199 2432 ft 161 kts 351°
2026-04-30 11:55 -34.07398 151.20918 2229 ft 160 kts 351°
2026-04-30 11:55 -34.06330 151.20639 2045 ft 151 kts 351°
2026-04-30 11:55 -34.05341 151.20381 1825 ft 141 kts 351°
2026-04-30 11:55 -34.04393 151.20135 1640 ft 138 kts 352°
2026-04-30 11:56 -34.03460 151.19893 1458 ft 136 kts 351°
2026-04-30 11:56 -34.02530 151.19651 1278 ft 136 kts 351°
2026-04-30 11:56 -34.01606 151.19411 1102 ft 135 kts 351°
2026-04-30 11:56 -34.00682 151.19171 930 ft 135 kts 352°
2026-04-30 11:57 -33.99766 151.18933 737 ft 134 kts 351°
2026-04-30 11:57 -33.98842 151.18693 557 ft 136 kts 352°
2026-04-30 11:57 -33.97927 151.18456 358 ft 136 kts 350°
2026-04-30 11:57 -33.96995 151.18216 197 ft 138 kts 349°
2026-04-30 11:58 -33.96063 151.17971 33 ft 130 kts 349°
2026-04-30 11:58 -33.95328 151.17779 29 ft 83 kts 347°
2026-04-30 11:58 -33.94888 151.17665 29 ft 50 kts 351°
2026-04-30 11:58 -33.94584 151.17659 29 ft 41 kts 11°
2026-04-30 11:59 -33.94402 151.17731 30 ft 22 kts 14°
2026-04-30 11:59 -33.94249 151.17706 29 ft 24 kts 342°
2026-04-30 11:59 -33.94080 151.17657 28 ft 26 kts 351°
2026-04-30 11:59 -33.93896 151.17612 29 ft 28 kts 347°
2026-04-30 12:00 -33.93738 151.17569 29 ft 15 kts 348°
2026-04-30 12:00 -33.93647 151.17610 30 ft 17 kts 70°
2026-04-30 12:00 -33.93654 151.17753 30 ft 14 kts 102°
2026-04-30 12:00 -33.93591 151.17823 30 ft 16 kts
2026-04-30 12:01 -33.93532 151.17819 30 ft 8 kts 307°
2026-04-30 12:01 -33.93525 151.17773 30 ft 3 kts 279°
2026-04-30 12:01 -33.93524 151.17766 30 ft 0 kts 280°